FW6550 Weather Reports


time (UTC)temp
F
wind
direction
speed
knots
gust
knots
rain 1hr
in
rain 24hr
in
rain mn
in
humidity
%
barometer
mb
20260507124537 59 0 0.0 2.6 0.08 0.67 0.31 13 1014.4
20260507123037 59 0 0.9 2.6 0.08 0.67 0.31 13 1014.2
20260507121533 59 0 0.0 1.7 0.08 0.67 0.31 12 1014.0
20260507120032 59 0 0.0 2.6 0.08 0.67 0.31 13 1013.8
20260507114535 59 0 0.9 2.6 0.00 0.58 0.23 13 1013.8
20260507113033 59 0 0.0 2.6 0.00 0.58 0.23 13 1013.1
20260507111537 59 29 0.0 1.7 0.00 0.58 0.23 13 1012.9
20260507110047 59 0 0.0 1.7 0.00 0.58 0.23 13 1012.7
20260507104533 59 0 0.0 4.3 0.00 0.58 0.23 14 1012.5
20260507103033 59 294 0.0 5.2 0.00 0.58 0.23 15 1013.0
20260507101540 60 328 0.9 4.3 0.00 0.58 0.23 14 1013.0
20260507100039 60 22 0.9 7.0 0.00 0.58 0.23 14 1012.1
20260507094538 61 347 1.7 7.0 0.00 0.58 0.23 13 1011.9
20260507093036 62 352 0.9 5.2 0.00 0.58 0.23 11 1011.4
20260507091538 63 0 1.7 7.0 0.01 0.58 0.23 10 1011.8
20260507090039 64 329 0.0 4.3 0.03 0.58 0.23 9 1011.2
20260507084538 64 313 1.7 7.0 0.05 0.58 0.23 8 1011.4
20260507083038 65 328 0.9 3.5 0.05 0.58 0.23 7 1011.3
20260507081532 65 0 0.0 4.3 0.04 0.58 0.22 6 1011.1
20260507080036 66 313 0.0 2.6 0.03 0.56 0.20 6 1011.3
20260507074543 66 0 0.0 0.0 0.04 0.54 0.18 6 1011.1
20260507073032 66 0 0.0 1.7 0.14 0.54 0.18 7 1011.5
20260507071533 66 0 0.0 7.0 0.17 0.54 0.18 7 1011.1
20260507070036 66 338 0.0 2.6 0.16 0.52 0.17 7 1011.5
20260507064538 66 0 0.0 7.0 0.13 0.50 0.14 8 1011.1
20260507063035 66 0 0.0 2.6 0.01 0.38 0.02 8 1010.3
20260507061534 66 0 0.0 0.9 0.01 0.37 0.01 8 1011.1
20260507060039 66 0 0.0 0.0 0.01 0.37 0.01 9 1011.6
20260507054532 66 0 0.0 0.0 0.01 0.37 0.01 9 1011.6
20260507053032 66 0 0.0 1.7 0.01 0.37 0.01 10 1011.7
20260507051539 66 0 0.0 3.5 0.00 0.36 0.00 11 1012.0
20260507050041 66 0 0.0 2.6 0.01 0.36 0.00 11 1011.7
20260507044534 66 0 0.0 2.6 0.02 0.36 0.36 12 1012.0
20260507043032 66 37 0.0 4.3 0.02 0.36 0.36 13 1011.9
20260507041538 67 0 0.0 1.7 0.05 0.36 0.36 14 1012.2
20260507040034 67 0 0.0 0.9 0.08 0.35 0.35 15 1012.1
20260507034550 67 0 0.0 2.6 0.12 0.34 0.34 16 1012.8
20260507033041 67 0 0.0 3.5 0.21 0.34 0.34 18 1012.7
20260507031535 67 0 0.0 0.9 0.27 0.31 0.31 22 1012.6
20260507030036 67 0 0.0 2.6 0.23 0.27 0.27 26 1012.4
20260507024548 68 0 0.0 0.9 0.19 0.22 0.22 29 1012.7
20260507023037 68 0 0.9 4.3 0.10 0.13 0.13 36 1012.6
20260507021545 68 0 1.7 7.0 0.02 0.04 0.04 45 1010.9
20260507020035 69 151 0.9 11.3 0.02 0.04 0.04 47 1011.8
20260507014540 71 23 0.9 7.0 0.01 0.03 0.03 35 1011.2
20260507013034 72 302 0.9 4.3 0.01 0.03 0.03 36 1011.6
20260507011540 73 9 0.0 7.0 0.00 0.02 0.02 30 1011.2
20260507010032 74 0 0.0 0.0 0.00 0.02 0.02 21 1011.4
20260507004531 74 0 0.0 0.0 0.01 0.02 0.02 26 1010.8
20260507003034 74 0 0.0 0.0 0.02 0.02 0.02 33 1011.1
20260507001541 75 0 0.0 0.9 0.02 0.02 0.02 40 1010.7
20260507000033 75 0 0.0 0.9 0.01 0.01 0.01 50 1011.8
20260506234532 75 0 0.0 1.7 0.01 0.01 0.01 59 1010.9
20260506233033 76 0 0.0 1.7 0.00 0.00 0.00 64 1011.5
20260506231533 76 0 0.0 1.7 0.00 0.00 0.00 68 1011.5
20260506230042 76 0 0.0 0.9 0.00 0.00 0.00 71 1011.8
20260506224534 77 0 0.0 2.6 0.00 0.00 0.00 70 1011.5
20260506223032 77 0 0.0 1.7 0.00 0.00 0.00 70 1011.2
20260506221537 77 228 0.0 1.7 0.00 0.00 0.00 61 1011.2
20260506220040 76 0 0.0 2.6 0.00 0.00 0.00 57 1011.4
20260506214531 76 0 0.0 2.6 0.00 0.00 0.00 59 1011.8
20260506213032 76 0 0.0 2.6 0.00 0.00 0.00 58 1011.9
20260506211540 76 158 0.0 2.6 0.00 0.00 0.00 47 1011.9
20260506210031 76 0 0.0 2.6 0.00 0.00 0.00 61 1012.0
20260506204533 76 0 0.0 2.6 0.00 0.00 0.00 68 1012.1
20260506203032 76 0 0.0 4.3 0.00 0.00 0.00 73 1012.4
20260506201532 77 0 0.9 7.8 0.00 0.00 0.00 78 1012.7
20260506200032 77 0 0.0 1.7 0.00 0.00 0.00 79 1012.7
20260506194538 78 0 0.9 4.3 0.00 0.00 0.00 79 1013.1
20260506193034 78 0 0.0 3.5 0.00 0.00 0.00 78 1013.4
20260506191534 78 0 0.0 5.2 0.00 0.00 0.00 78 1013.7
20260506190032 79 0 0.9 5.2 0.00 0.00 0.00 77 1013.7
20260506184531 79 0 0.0 6.1 0.00 0.00 0.00 77 1013.9
20260506183034 80 178 1.7 7.8 0.00 0.00 0.00 76 1013.8
20260506181536 81 155 0.9 4.3 0.00 0.00 0.00 73 1014.0
20260506180038 81 186 0.9 7.0 0.00 0.00 0.00 76 1013.8
20260506174534 79 165 1.7 6.1 0.00 0.00 0.00 76 1013.7
20260506173032 78 0 0.9 5.2 0.00 0.00 0.00 77 1013.8
20260506171533 78 213 0.9 4.3 0.00 0.00 0.00 78 1014.0
20260506170036 77 248 1.7 6.1 0.00 0.00 0.00 78 1014.2
20260506164532 77 263 0.9 7.0 0.00 0.00 0.00 78 1014.3
20260506163035 77 266 0.0 4.3 0.00 0.00 0.00 78 1014.4
20260506161535 78 228 0.0 3.5 0.00 0.00 0.00 77 1014.5
20260506160035 79 207 0.9 6.1 0.00 0.00 0.00 75 1014.4
20260506154539 79 0 1.7 7.0 0.00 0.00 0.00 76 1014.2
20260506153041 79 0 0.0 5.2 0.00 0.00 0.00 76 1014.1
20260506151534 79 5 0.0 5.2 0.00 0.00 0.00 75 1013.8
20260506150040 78 0 1.7 4.3 0.00 0.00 0.00 77 1013.9
20260506144552 77 180 0.0 2.6 0.00 0.00 0.00 78 1013.9
20260506143041 76 177 0.0 3.5 0.00 0.00 0.00 78 1013.9
20260506141529 76 109 0.9 3.5 0.00 0.00 0.00 78 1013.8
20260506140053 75 0 0.0 3.5 0.00 0.00 0.00 79 1013.9
20260506134536 74 0 0.0 4.3 0.00 0.00 0.00 78 1014.1
20260506133032 72 0 0.0 3.5 0.00 0.00 0.00 75 1014.1
20260506131543 71 0 0.9 5.2 0.00 0.00 0.00 73 1014.2
20260506130054 70 227 0.0 3.5 0.00 0.00 0.00 66 1014.3